Tracking 35280 objects as of 7-Sep-2026
HD Live streaming from Space Station
objects crossing your sky now

SL-4 R/B


SL-4 R/B is no longer on orbit


NORAD ID: 8686
Int'l Code: 1976-013B
Launch date: February 11, 1976
Source: Commonwealth of Independent States (former USSR) (CIS)
Launch site: TYURATAM MISSILE AND SPACE COMPLEX (TTMTR)
Decay date: 1976-02-17

Note: This is a ROCKET BODY
Your satellite tracking list
Your tracking list is empty




NASA's NSSDC Master Catalog

Two Line Element Set (TLE):
1 08686U 76013  B 76047.12405013  .03335035 +00000-0 +00000-0 0  9997
2 08686 064.9830 291.3930 0049023 059.8084 300.7891 16.29313134000774
Source of the keplerian elements: AFSPC